www.pogodaiklimat.ru

Погода и климат >> Архив погоды >> Норвегия >> Fedje


ПОГОДА в Fedje

  • Прогноз погоды в Fedje
  • Монитор погоды в Fedje
  • Климат города

АРХИВ ПОГОДЫ в Fedje

Время (UTC), дата Ветер
(напр.,м/с)
 
Видим.   Явления Облачность Т
(С)
Тd
(С)
f
(%)
Тe
(С)
Тes
(С)
Комфортность P
(гПа)
Po
(гПа)
Тmin
(С)
Tmax
(С)
R
(мм)
R24
(мм)
S
(см)
17 20.06 СЗ 6
{9}
н/о н/о +11.2 +6.4 72 +8 +8 1018.3 1016.0
16 20.06 СЗ 5
{10}
н/о н/о +11.8 +6.9 72 +9 +9 1018.2 1015.9
18 20.06 СЗ 7
{10}
н/о н/о +11.2 +6.0 70 +8 +8 1018.5 1016.2 +9.7 +12.3
19 20.06 СЗ 7
{10}
н/о н/о +11.1 +5.9 70 +8 +8 1018.9 1016.6
20 20.06 СЗ 7
{9}
н/о н/о +10.8 +5.6 70 +7 +7 1019.0 1016.7
21 20.06 СЗ 6
{11}
н/о н/о +10.4 +6.0 74 +7 +7 1018.9 1016.6
23 20.06 СЗ 8
{10}
н/о н/о +10.3 +6.3 76 +6 +6 1019.1 1016.8
22 20.06 СЗ 7
{9}
н/о н/о +10.6 +5.8 72 +7 +7 1018.9 1016.6
00 21.06 СЗ 7
{11}
н/о н/о +10.5 +4.0 64 +7 +7 1019.1 1016.8
01 21.06 СЗ 6
{9}
н/о н/о +10.0 +5.0 71 +7 +7 1019.1 1016.8
02 21.06 С 3
{9}
н/о н/о +9.7 +5.1 73 +8 +8 1018.9 1016.6
03 21.06 СЗ 4
{6}
н/о н/о +10.0 +5.4 73 +7 +7 1018.8 1016.5
05 21.06 СЗ 8
{9}
н/о н/о +8.9 +6.7 86 +4 +4 1019.1 1016.8
04 21.06 С 2
{7}
н/о н/о +9.7 +5.1 73 +8 +8 1018.9 1016.6
06 21.06 С 1
{9}
н/о н/о +10.1 +5.9 75 +10 +10 1018.8 1016.5 +8.7 +11.3
07 21.06 СЗ 3
{4}
н/о н/о +10.2 +5.2 71 +8 +8 1018.9 1016.6
08 21.06 СЗ 3
{6}
н/о н/о +9.3 +6.0 80 +7 +7 1018.9 1016.6
09 21.06 ЮЗ 2
{3}
н/о н/о +10.5 +5.5 71 +9 +9 1018.8 1016.5
11 21.06 З 2
{4}
н/о н/о +11.3 +6.3 71 +10 +10 1018.2 1015.9
10 21.06 З 2
{3}
н/о н/о +10.9 +5.5 69 +10 +10 1018.4 1016.1
12 21.06 СЗ 3
{6}
н/о н/о +11.8 +5.9 67 +10 +10 1017.9 1015.6
13 21.06 СЗ 3
{4}
н/о н/о +12.1 +6.0 66 +11 +11 1017.5 1015.2
14 21.06 СЗ 3
{4}
н/о н/о +12.0 +5.6 65 +11 +11 1016.9 1014.6
15 21.06 СЗ 3
{4}
н/о н/о +12.2 +5.4 63 +11 +11 1016.4 1014.1
17 21.06 З 3
{5}
н/о н/о +11.5 +5.6 67 +10 +10 1015.4 1013.1
16 21.06 З 3
{4}
н/о н/о +11.9 +5.1 63 +10 +10 1015.8 1013.5
18 21.06 З 1
{5}
н/о н/о +11.4 +5.5 67 +11 +11 1015.0 1012.7 +9.3 +12.5
19 21.06 ЮЗ 1
{2}
н/о н/о +11.2 +5.5 68 +11 +11 1014.4 1012.1
20 21.06 В 1
{3}
н/о н/о +10.8 +5.4 69 +11 +11 1013.6 1011.3
21 21.06 В 1
{2}
н/о н/о +10.8 +5.4 69 +11 +11 1013.2 1010.9
23 21.06 ЮВ 2
{3}
н/о н/о +11.0 +6.0 71 +10 +10 1012.5 1010.2
22 21.06 Ю 1
{3}
н/о н/о +10.9 +5.7 70 +11 +11 1013.0 1010.7
00 22.06 ЮВ 3
{4}
н/о н/о +11.2 +6.2 71 +9 +9 1011.6 1009.3
01 22.06 ЮВ 5
{5}
н/о н/о +11.3 +6.3 71 +9 +9 1010.8 1008.5
02 22.06 В 6
{7}
н/о н/о +11.1 +7.0 76 +8 +8 1009.9 1007.6
03 22.06 ЮВ 6
{8}
н/о н/о +11.1 +7.4 78 +8 +8 1009.6 1007.3
05 22.06 ЮВ 7
{8}
н/о н/о +11.6 +7.5 76 +8 +8 1007.9 1005.6
04 22.06 ЮВ 6
{8}
н/о н/о +11.3 +7.4 77 +8 +8 1008.8 1006.5
06 22.06 Ю 6
{9}
н/о н/о +11.4 +7.5 77 +8 +8 1008.1 1005.8 +10.8 +11.8
07 22.06 ЮВ 6
{9}
н/о н/о +11.3 +8.2 81 +8 +8 1007.5 1005.2
08 22.06 ЮВ 6
{7}
н/о н/о +11.2 +8.6 84 +8 +8 1007.1 1004.8
09 22.06 ЮВ 10
{12}
н/о н/о +11.8 +8.7 81 +8 +8 1006.6 1004.3
11 22.06 ЮВ 8
{11}
н/о н/о +11.9 +10.2 89 +9 +9 1006.5 1004.2
10 22.06 ЮВ 8
{11}
н/о н/о +11.7 +9.6 87 +8 +8 1006.7 1004.4
12 22.06 ЮВ 9
{12}
н/о н/о +11.9 +10.6 92 +8 +8 1006.5 1004.2
13 22.06 ЮВ 7
{10}
н/о н/о +12.0 +10.9 93 +9 +9 1006.8 1004.5
14 22.06 Ю 7
{9}
н/о н/о +12.6 +11.5 93 +10 +10 1006.5 1004.2
15 22.06 Ю 6
{9}
н/о н/о +12.7 +11.8 94 +10 +10 1006.5 1004.2
17 22.06 СЗ 4
{8}
н/о н/о +12.1 +11.2 94 +10 +10 1006.2 1003.9
16 22.06 Ю 7 н/о н/о +12.7 +11.8 94 +10 +10 1006.2 1003.9
18 22.06 СЗ 2
{10}
н/о н/о +12.1 +11.2 94 +11 +11 1006.2 1003.9 +11.2 +12.8
19 22.06 СЗ 2
{3}
н/о н/о +12.0 +11.1 94 +11 +11 1006.0 1003.7
20 22.06 СЗ 4
{5}
н/о н/о +11.9 +11.0 94 +10 +10 1006.1 1003.8
21 22.06 СЗ 3
{6}
н/о н/о +11.7 +10.8 94 +10 +10 1005.9 1003.6
23 22.06 З 2
{4}
н/о н/о +11.6 +10.2 91 +10 +10 1005.9 1003.6
22 22.06 С 2
{4}
н/о н/о +11.6 +10.7 94 +10 +10 1005.7 1003.4
00 23.06 СЗ 1
{6}
н/о н/о +11.3 +9.9 91 +11 +11 1005.6 1003.3
01 23.06 СВ 1
{1}
н/о н/о +11.2 +9.8 91 +11 +11 1005.3 1003.0
02 23.06 ЮВ 1
{2}
н/о н/о +11.5 +9.9 90 +11 +11 1005.0 1002.7
03 23.06 Ю 2
{2}
н/о н/о +11.7 +10.0 89 +11 +11 1004.7 1002.4
05 23.06 ЮЗ 2
{4}
н/о н/о +11.6 +9.5 87 +10 +10 1004.1 1001.8
04 23.06 З 3
{7}
н/о н/о +11.7 +9.6 87 +10 +10 1004.5 1002.2
06 23.06 ЮЗ 2
{7}
н/о н/о +11.7 +8.6 81 +11 +11 1003.6 1001.3 +11.2 +12.1
07 23.06 ЮВ 4
{5}
н/о н/о +12.0 +9.2 83 +10 +10 1003.1 1000.8
08 23.06 Ю 5
{7}
н/о н/о +11.9 +10.0 88 +9 +9 1003.4 1001.1
09 23.06 Ю 6
{7}
н/о н/о +11.7 +9.6 87 +9 +9 1003.0 1000.7
11 23.06 Ю 9
{11}
н/о н/о +11.5 +9.8 89 +8 +8 1002.6 1000.3
10 23.06 Ю 6
{9}
н/о н/о +11.8 +9.9 88 +9 +9 1002.7 1000.4
12 23.06 Ю 9
{13}
н/о н/о +11.7 +10.3 91 +8 +8 1002.3 1000.0
13 23.06 Ю 11
{13}
н/о н/о +11.9 +10.5 91 +8 +8 1001.5 999.2
14 23.06 Ю 10
{13}
н/о н/о +12.3 +10.5 89 +9 +9 1001.0 998.7
15 23.06 Ю 11
{15}
н/о н/о +12.4 +11.1 92 +9 +9 1000.5 998.2
17 23.06 З 7
{13}
н/о н/о +11.9 +10.8 93 +9 +9 1000.2 997.9
16 23.06 Ю 10
{14}
н/о н/о +12.6 +11.5 93 +9 +9 1000.3 998.0
18 23.06 ЮЗ 8
{15}
н/о н/о +12.8 +11.2 90 +10 +10 1000.4 998.1 +11.2 +12.8
19 23.06 З 6
{11}
н/о н/о +12.4 +9.8 84 +10 +10 1001.1 998.8
20 23.06 ЮЗ 7
{12}
н/о н/о +12.4 +9.8 84 +9 +9 1001.7 999.4
21 23.06 ЮЗ 7
{9}
н/о н/о +12.1 +9.7 85 +9 +9 1002.1 999.8
23 23.06 ЮЗ 7
{9}
н/о н/о +11.9 +8.9 82 +9 +9 1002.4 1000.1
22 23.06 ЮЗ 8
{10}
н/о н/о +12.0 +8.7 80 +9 +9 1002.3 1000.0
00 24.06 ЮЗ 8
{12}
н/о н/о +11.8 +8.7 81 +8 +8 1002.4 1000.1
01 24.06 ЮЗ 7
{10}
н/о н/о +11.9 +8.0 77 +9 +9 1002.1 999.8
02 24.06 ЮЗ 8
{10}
н/о н/о +11.9 +8.2 78 +9 +9 1001.8 999.5
03 24.06 Ю 8
{10}
н/о н/о +11.9 +8.2 78 +9 +9 1001.2 998.9
05 24.06 Ю 9
{12}
н/о н/о +12.4 +8.5 77 +9 +9 999.8 997.5
04 24.06 Ю 9
{11}
н/о н/о +12.1 +8.0 76 +9 +9 1000.5 998.2
06 24.06 Ю 6
{18}
н/о н/о +10.4 +6.7 78 +7 +7 999.6 997.3 +9.8 +12.9
07 24.06 ЮЗ 9
{16}
н/о н/о +10.3 +7.6 83 +6 +6 999.6 997.3
08 24.06 Ю 6
{10}
н/о н/о +11.0 +7.5 79 +8 +8 999.3 997.0
09 24.06 Ю 5
{8}
н/о н/о +12.1 +7.2 72 +10 +10 999.2 996.9
11 24.06 ЮЗ 6
{12}
н/о н/о +12.2 +8.5 78 +10 +10 999.0 996.7
10 24.06 Ю 6
{9}
н/о н/о +12.2 +7.7 74 +10 +10 998.9 996.6
12 24.06 ЮЗ 9
{16}
н/о н/о +12.3 +6.8 69 +9 +9 998.9 996.6
13 24.06 ЮЗ 8
{10}
н/о н/о +12.6 +7.7 72 +10 +10 998.9 996.6
14 24.06 ЮЗ 10
{11}
н/о н/о +13.1 +7.6 69 +10 +10 998.7 996.5
15 24.06 ЮЗ 10
{13}
н/о н/о +12.7 +7.4 70 +9 +9 998.5 996.3
17 24.06 ЮЗ 10
{16}
н/о н/о +12.3 +8.4 77 +9 +9 997.5 995.2
16 24.06 Ю 10
{14}
н/о н/о +12.6 +7.7 72 +9 +9 997.9 995.7
18 24.06 ЮЗ 10
{16}
н/о н/о +11.2 +6.8 74 +7 +7 996.8 994.5 +10.1 +13.3
19 24.06 Ю 12
{15}
н/о н/о +11.7 +7.2 74 +8 +8 995.8 993.5
20 24.06 Ю 10
{18}
н/о н/о +11.0 +7.7 80 +7 +7 995.5 993.2
21 24.06 ЮВ 11
{12}
н/о н/о +10.5 +8.1 85 +6 +6 994.8 992.5
23 24.06 Ю 10
{15}
н/о н/о +10.8 +7.9 82 +7 +7 993.5 991.2
22 24.06 Ю 10
{14}
н/о н/о +10.6 +7.1 79 +6 +6 994.0 991.7
00 25.06 Ю 8
{18}
н/о н/о +11.0 +8.6 85 +7 +7 992.7 990.4
01 25.06 Ю 13
{18}
н/о н/о +11.0 +7.7 80 +6 +6 991.6 989.4
02 25.06 Ю 12
{17}
н/о н/о +11.3 +8.0 80 +7 +7 990.8 988.6
03 25.06 Ю 14
{18}
н/о н/о +11.3 +8.7 84 +7 +7 989.9 987.7
05 25.06 Ю 11
{16}
н/о н/о +11.0 +8.4 84 +7 +7 988.9 986.7
04 25.06 Ю 13
{17}
н/о н/о +11.5 +9.1 85 +7 +7 989.1 986.9
06 25.06 Ю 10
{18}
н/о н/о +11.4 +8.6 83 +7 +7 988.6 986.4 +9.9 +12.1
07 25.06 Ю 8
{14}
н/о н/о +10.6 +8.2 85 +7 +7 988.6 986.4
08 25.06 Ю 6
{12}
н/о н/о +10.7 +8.6 87 +7 +7 988.4 986.2
09 25.06 Ю 6
{12}
н/о н/о +12.0 +9.6 85 +9 +9 988.3 986.1
11 25.06 ЮВ 5
{9}
н/о н/о +11.7 +9.8 88 +9 +9 988.8 986.6
10 25.06 Ю 7
{10}
н/о н/о +11.5 +9.3 86 +8 +8 988.5 986.3
12 25.06 В 8
{14}
н/о н/о +10.3 +8.6 89 +6 +6 988.9 986.7
13 25.06 В 6
{12}
н/о н/о +10.6 +8.5 87 +7 +7 989.6 987.4
14 25.06 СВ 6
{12}
н/о н/о +10.4 +8.0 85 +7 +7 991.1 988.8
15 25.06 СВ 4
{8}
н/о н/о +11.1 +7.4 78 +9 +9 992.1 989.9
17 25.06 С 7
{12}
н/о н/о +12.5 +9.5 82 +10 +10 993.1 990.9
16 25.06 С 6
{9}
н/о н/о +12.1 +9.0 81 +9 +9 992.6 990.4
18 25.06 С 12
{18}
н/о н/о +12.1 +9.0 81 +8 +8 993.9 991.7 +10.0 +12.9
19 25.06 С 12
{18}
н/о н/о +11.7 +8.0 78 +8 +8 995.1 992.8
20 25.06 С 11
{21}
н/о н/о +11.3 +7.0 75 +7 +7 996.6 994.3
21 25.06 С 9
{17}
н/о н/о +11.3 +7.4 77 +8 +8 997.5 995.2
23 25.06 СЗ 12
{15}
н/о н/о +11.3 +8.4 82 +7 +7 999.1 996.8
22 25.06 СЗ 10
{15}
н/о н/о +11.3 +8.5 83 +7 +7 998.4 996.1
00 26.06 СЗ 12
{21}
н/о н/о +11.3 +8.7 84 +7 +7 999.5 997.2
01 26.06 СЗ 11
{15}
н/о н/о +11.0 +8.9 87 +7 +7 1000.0 997.7
02 26.06 С 9
{13}
н/о н/о +10.4 +8.3 87 +6 +6 1000.5 998.2
03 26.06 С 8
{12}
н/о н/о +10.7 +8.5 86 +7 +7 1001.0 998.7
05 26.06 С 9
{16}
н/о н/о +10.1 +6.8 80 +6 +6 1002.0 999.7
04 26.06 С 9
{14}
н/о н/о +10.4 +7.8 84 +6 +6 1001.4 999.1
06 26.06 С 9
{16}
н/о н/о +10.4 +7.1 80 +6 +6 1002.8 1000.5 +9.8 +12.4
07 26.06 С 8
{14}
н/о н/о +10.4 +5.6 72 +7 +7 1003.7 1001.4
08 26.06 С 9
{14}
н/о н/о +10.8 +4.1 63 +7 +7 1004.4 1002.1
09 26.06 С 10
{14}
н/о н/о +11.2 +4.2 62 +7 +7 1005.0 1002.7
11 26.06 СЗ 10
{15}
н/о н/о +10.9 +5.5 69 +7 +7 1006.5 1004.2
10 26.06 С 9
{15}
н/о н/о +11.6 +3.9 59 +8 +8 1005.8 1003.5
12 26.06 СЗ 10
{15}
н/о н/о +11.3 +5.6 68 +8 +8 1007.0 1004.7
13 26.06 СЗ 10
{14}
н/о н/о +11.3 +6.9 74 +7 +7 1007.6 1005.3
14 26.06 С 10
{15}
н/о н/о +12.0 +4.5 60 +9 +9 1008.1 1005.8
15 26.06 С 10
{14}
н/о н/о +11.8 +4.1 59 +8 +8 1008.7 1006.4
17 26.06 СЗ 10
{14}
н/о н/о +11.4 +3.7 59 +8 +8 1009.2 1006.9
16 26.06 С 9
{15}
н/о н/о +11.6 +4.4 61 +8 +8 1009.0 1006.7
18 26.06 С 9
{15}
н/о н/о +10.6 +3.6 62 +7 +7 1009.7 1007.4 +10.3 +12.1
19 26.06 С 9
{14}
н/о н/о +10.5 +4.2 65 +7 +7 1009.9 1007.6
20 26.06 С 8
{13}
н/о н/о +10.3 +4.2 66 +7 +7 1010.4 1008.1
21 26.06 С 8
{13}
н/о н/о +9.9 +3.9 66 +6 +6 1010.8 1008.5
23 26.06 С 6
{12}
н/о н/о +9.7 +4.1 68 +6 +6 1011.8 1009.5
22 26.06 С 8
{12}
н/о н/о +9.8 +4.0 67 +6 +6 1011.5 1009.2
00 27.06
{14}
н/о н/о +9.3 +4.7 73 1011.9 1009.6
01 27.06 С 7
{9}
н/о н/о +9.4 +4.8 73 +6 +6 1012.2 1009.9
02 27.06 С 4
{8}
н/о н/о +8.9 +5.3 78 +6 +6 1012.5 1010.2
03 27.06 С 4
{6}
н/о н/о +8.8 +4.2 73 +6 +6 1012.7 1010.4
05 27.06
{7}
н/о н/о +10.3 +5.1 70 1012.9 1010.6
04 27.06 С 5
{8}
н/о н/о +9.0 +4.8 75 +6 +6 1012.7 1010.4
06 27.06
{9}
н/о н/о +10.9 +4.8 66 1013.0 1010.7 +8.6 +11.2
07 27.06
{8}
н/о н/о +11.0 +4.9 66 1013.4 1011.1
08 27.06 С 6
{9}
н/о н/о +11.2 +3.7 60 +8 +8 1013.5 1011.2
09 27.06 С 6
{9}
н/о н/о +11.6 +4.6 62 +9 +9 1013.6 1011.3
11 27.06 СЗ 8
{10}
н/о н/о +11.1 +5.4 68 +8 +8 1013.4 1011.1
10 27.06 СЗ 7
{9}
н/о н/о +11.6 +5.0 64 +9 +9 1013.4 1011.1
12 27.06 С 8
{11}
н/о н/о +12.1 +5.1 62 +9 +9 1013.0 1010.7
13 27.06 СЗ 9
{12}
н/о н/о +11.9 +4.9 62 +9 +9 1012.9 1010.6
14 27.06 С 9
{12}
н/о н/о +12.3 +5.0 61 +9 +9 1012.6 1010.3
15 27.06 С 9
{13}
н/о н/о +12.8 +5.3 60 +10 +10 1012.0 1009.7
16 27.06 С 8
{12}
н/о н/о +13.0 +6.1 63 +10 +10 1011.5 1009.2

 

Местоположение метеостанции Fedje (Норвегия): широта 60.78 долгота 4.72 высота над уровнем моря 19 м.

В архиве по умолчанию представлена погода в Fedje за последнюю неделю. Архивные данные за месяц целиком и за предыдущие месяцы, начиная с января 2011 года, Вы можете получить, выбрав интересующий диапазон дат из раскрывающегося списка и нажав кнопку "Ввод!".

Внимание! Время в таблицах - всемирное. Для получения местного времени необходимо прибавить поправку, которая в Fedje равна 1 ч.

Смотрите также архив погоды в соседних городах и на ближайших метеорологических станциях:

Погода в Takle (Норвегия) (45 км)
Погода в Bergen (Норвегия) (56 км)
Погода в Furuneset (Норвегия) (59 км)
Погода в Fossmark (Норвегия) (62 км)
Погода в Modalen III (Норвегия) (68 км)
Погода в Evanger (Норвегия) (77 км)
Погода в Kvamskogen (Норвегия) (82 км)
Погода в Bulken (Норвегия) (83 км)
Погода в Ytteroyane Fyr (Норвегия) (88 км)
Погода в Forde Lifthavn (Норвегия) (88 км)

Пояснения к столбцам:

Ветер - указаны скорость ветра в м/с - средняя за 10 мин, порывы в срок и между сроками (в фигурных скобках) и направление, откуда дует ветер: С - северный, СВ - северо-восточный, В - восточный, ЮВ - юго-восточный, Ю - южный, ЮЗ - юго-западный, З - западный, СЗ - северо-западный.
Видимость - горизонтальная дальность видимости в метрах или километрах. При видимости от 1 до 10 км при отсутствии осадков обычно наблюдается дымка, при ухудшении видимости до 1 км и менее - туман. В сухую погоду видимость может ухудшаться дымом, пылью или мглою.
Явления - указаны атмосферные явления, наблюдавшиеся в срок или в последний час перед сроком; фигурными скобками обозначены явления, наблюдавшиеся между сроками (за 1-3 часа до срока); квадратными скобками обозначены град или гололедные отложения с указанием их диаметра в мм.
Облачность - указаны через наклонную черту общая и нижняя облачность в баллах и высота нижней границы облаков в метрах; квадратными скобками обозначены формы облаков: Ci - перистые, Cs - перисто-слоистые, Cc - перисто-кучевые, Ac - высококучевые, As - высокослоистые, Sc - слоисто-кучевые, Ns - слоисто-дождевые, Cu - кучевые, Cb - кучево-дождевые. Подробнее классификацию облаков см. в Атласе облаков (PDF).
T - Температура воздуха - температура, измеренная на высоте 2 м над землей.
Td - Температура точки росы - температура, при понижении до которой содержащийся в воздухе водяной пар достигнет насыщения.
f - Относительная влажность воздуха - влажноcть воздуха, измеренная на высоте 2 м над землей.
Te - Эффективная температура - температура, которую ощущает одетый по сезону человек в тени. Характеристика душности погоды. При расчете учитывается влияние влажности воздуха и скорости ветра на теплоощущения человека.
Tes - Эффективная температура на солнце - температура, которую ощущает человек, с поправкой на солнечный нагрев. Характеристика знойности погоды. Зависит от высоты солнца над горизонтом, облачности и скорости ветра. Ночью, в пасмурную погоду, а также при ветре 12 м/с и более поправка равна нулю.
P - Атмосферное давление - приведенное к уровню моря атмосферное давление.
Po - Атмосферное давление - измеренное на уровне метеостанции атмосферное давление.
Tmin - Минимальная температура - минимум температуры воздуха на высоте 2 м над землей.
Tmax - Максимальная температура - максимум температуры воздуха на высоте 2 м над землей.
R - Количество осадков - Количество выпавших осадков за период времени, мм. При наведении курсора мыши на число - период времени, за который выпало указанное количество осадков.
R24 - Количество осадков - Количество выпавших осадков за 24 часа, мм.
S - Снежный покров - Высота снежного покрова, см. При наведении курсора мыши на число - состояние снежного покрова и степень покрытия местности в баллах.